This demonstration page uses our WeatherBlox Daily Observations layout. Learn more.

Left ArrowRight Arrow

Hourly Observations for September 5, 2019

Temp ( °F °C ) Dew Point ( °F °C ) Humidity (%) Winds ( mph kmh ) Pressure ( in mb ) Visibility ( mi km ) Precip ( " mm )
12:59 am 00:59 Mostly Cloudy 78 25.6 74 23.3 87 87 S 5 7 29.98 1015 10 16 0.00 0.00
1:59 am 01:59 Mostly Cloudy 77 25 74 23.3 90 90 SSW 5 7 29.98 1015 10 16 0.00 0.00
2:59 am 02:59 Mostly Cloudy 77 25 75 23.9 94 94 SSW 6 9 29.97 1015 10 16 0.00 0.00
3:59 am 03:59 Mostly Cloudy 76 24.4 75 23.9 97 97 Calm 29.97 1015 9 14 0.00 0.00
4:59 am 04:59 Mostly Cloudy 75 23.9 74 23.3 96 96 Calm 29.98 1015 9 14 0.00 0.00
5:59 am 05:59 Mostly Cloudy 76 24.4 74 23.3 94 94 ENE 3 6 29.98 1015 9 14 0.00 0.00
6:59 am 06:59 Mostly Cloudy 77 25 75 23.9 94 94 Calm 29.98 1015 9 14 0.00 0.00
7:59 am 07:59 Cloudy 78 25.6 76 24.4 93 93 ENE 6 9 29.99 1016 8 13 0.00 0.00
8:59 am 08:59 Cloudy 79 26.1 77 25 94 94 ENE 8 13 29.99 1016 8 13 0.00 0.00
9:59 am 09:59 Mostly Cloudy 80 26.7 77 25 90 90 E 12 19 29.98 1015 9 14 0.00 0.00
10:59 am 10:59 Cloudy 83 28.3 77 25 82 82 E 9 15 29.98 1015 10 16 0.00 0.00
11:59 am 11:59 Cloudy 82 27.8 76 24.4 82 82 E 12 19 29.96 1015 10 16 0.00 0.00
12:59 pm 12:59 Cloudy 82 27.8 75 23.9 79 79 E 12 19 29.96 1014 10 16 0.00 0.00
1:59 pm 13:59 Cloudy 81 27.2 76 24.4 85 85 ENE 12 19 29.96 1015 10 16 0.00 0.00
2:41 pm 14:41 Cloudy 81 27.2 76 24.4 85 85 NE 15 24 29.95 1014 9 14 0.00 0.00
2:59 pm 14:59 Cloudy 81 27.2 76 24.4 85 85 ENE 16 26 29.94 1014 10 16 0.00 0.00
3:06 pm 15:06 Cloudy 81 27.2 76 24.4 85 85 ENE 15 24 29.93 1014 10 16 0.00 0.00
3:51 pm 15:51 Cloudy 80 26.7 75 23.9 85 85 ENE 14 22 29.93 1014 9 14 0.00 0.00
3:59 pm 15:59 Cloudy 80 26.7 75 23.9 85 85 ENE 18 30 29.92 1013 9 14 0.00 0.00
4:59 pm 16:59 Cloudy 78 25.6 75 23.9 90 90 ENE 20 31 29.91 1013 8 13 0.00 0.00
5:59 pm 17:59 Cloudy 78 25.6 75 23.9 90 90 NE 18 30 29.90 1013 7 11 0.00 0.00
6:59 pm 18:59 Cloudy with Mist and Fog 77 25 74 23.3 90 90 NE 21 33 29.89 1012 6 10 0.00 0.00
7:59 pm 19:59 Cloudy 77 25 74 23.3 90 90 ENE 17 28 29.88 1012 8 13 0.00 0.00
8:59 pm 20:59 Cloudy 77 25 74 23.3 90 90 NE 20 31 29.87 1012 9 14 0.00 0.00
9:31 pm 21:31 Cloudy 77 25 74 23.3 90 90 NE 20 31 29.88 1012 9 14 0.00 0.00
9:59 pm 21:59 Cloudy 77 25 74 23.3 90 90 NE 20 31 29.85 1011 9 14 0.00 0.00
10:59 pm 22:59 Mostly Cloudy 77 25 73 22.8 88 88 ENE 18 30 29.83 1010 10 16 0.00 0.00
11:14 pm 23:14 Mostly Cloudy 77 25 74 23.3 90 90 ENE 18 30 29.83 1010 10 16 0.00 0.00
11:40 pm 23:40 Cloudy 77 25 73 22.8 88 88 ENE 16 26 29.83 1010 9 14 0.00 0.00
11:59 pm 23:59 Cloudy with Light Rain 77 25 74 23.3 90 90 ENE 16 26 29.81 1010 8 13 0.00 0.00

Powered by AerisWeather